Location: Flynn Junction
(40.1314°N, 99.5162°W)
Time: 21:11:12
(UTC+00:00)

Cosmos 407 Rocket - Pass Details

Date: 29 October 2020
Orbit: 743 x 787 km, 74.1° (Epoch: 30 November)

Event Time Altitude Azimuth Distance (km) Brightness Sun altitude
Rises 12:27:42 0° 215° (SW) 3,168 6.5 -7.7°
Reaches altitude 10° 12:30:09 10° 222° (SW) 2,251 5.6 -7.2°
Maximum altitude 12:35:00 44° 294° (WNW) 1,033 3.8 -6.3°
Drops below altitude 10° 12:39:55 10° 6° (N) 2,282 5.9 -5.4°
Sets 12:42:25 0° 13° (NNE) 3,217 6.7 -4.9°
